When you browse on this site, cookies collect data to enhance your experience and personalize the content and advertising you see.
Visit our Privacy Policy to learn more. By continuing to use the site, you agree to this use of cookies and data.

Hourly Weather Kuldiga

Today, 7 August, Friday

Time Temperature Precipitation Wind Pressure Humidity
00:00 +15°C° 0 mm 1 mps 767 mmHg 75%
01:00 +15°C° 0 mm 1 mps 767 mmHg 75%
02:00 +15°C° 0 mm 1 mps 767 mmHg 74%
03:00 +15°C° 0 mm 1 mps 767 mmHg 72%
04:00 +15°C° 0 mm 1 mps 767 mmHg 71%
05:00 +18°C° 0 mm 1 mps 767 mmHg 66%
06:00 +20°C° 0 mm 1 mps 768 mmHg 61%
07:00 +22°C° 0 mm 1 mps 768 mmHg 54%
08:00 +24°C° 0 mm 1 mps 768 mmHg 50%
09:00 +25°C° 0 mm 1 mps 768 mmHg 45%
10:00 +27°C° 0 mm 1 mps 768 mmHg 40%
11:00 +28°C° 0 mm 1 mps 768 mmHg 39%
12:00 +29°C° 0 mm 1 mps 768 mmHg 38%
13:00 +30°C° 0 mm 1 mps 768 mmHg 37%
14:00 +29°C° 0 mm 1 mps 767 mmHg 39%
15:00 +29°C° 0 mm 1 mps 767 mmHg 41%
16:00 +28°C° 0 mm 2 mps 767 mmHg 42%
17:00 +26°C° 0 mm 2 mps 767 mmHg 52%
18:00 +23°C° 0 mm 2 mps 767 mmHg 62%
19:00 +20°C° 0 mm 2 mps 767 mmHg 72%
20:00 +19°C° 0 mm 2 mps 767 mmHg 74%
21:00 +18°C° 0 mm 2 mps 767 mmHg 77%
22:00 +17°C° 0 mm 2 mps 767 mmHg 79%
23:00 +18°C° 0 mm 1 mps 767 mmHg 79%

Tomorrow, 8 August, Saturday

Time Temperature Precipitation Wind Pressure Humidity
00:00 +16°C° 0 mm 1 mps 767 mmHg 79%
01:00 +16°C° 0 mm 1 mps 767 mmHg 78%
02:00 +16°C° 0 mm 1 mps 767 mmHg 79%
03:00 +16°C° 0 mm 1 mps 766 mmHg 80%
04:00 +16°C° 0 mm 1 mps 766 mmHg 81%
05:00 +19°C° 0 mm 1 mps 766 mmHg 76%
06:00 +21°C° 0 mm 1 mps 766 mmHg 71%
07:00 +22°C° 0 mm 1 mps 766 mmHg 66%
08:00 +24°C° 0 mm 1 mps 766 mmHg 61%
09:00 +26°C° 0 mm 1 mps 766 mmHg 55%
10:00 +28°C° 0 mm 1 mps 766 mmHg 49%
11:00 +29°C° 0 mm 1 mps 765 mmHg 47%
12:00 +30°C° 0 mm 1 mps 765 mmHg 44%
13:00 +30°C° 0 mm 1 mps 765 mmHg 42%
14:00 +30°C° 0 mm 1 mps 765 mmHg 44%
15:00 +29°C° 0 mm 1 mps 764 mmHg 46%
16:00 +29°C° 0 mm 1 mps 764 mmHg 48%
17:00 +27°C° 0 mm 1 mps 764 mmHg 57%
18:00 +24°C° 0 mm 1 mps 763 mmHg 67%
19:00 +22°C° 0 mm 1 mps 763 mmHg 77%
20:00 +21°C° 0 mm 1 mps 763 mmHg 79%
21:00 +20°C° 0 mm 1 mps 763 mmHg 82%
22:00 +20°C° 0 mm 1 mps 763 mmHg 85%
23:00 +19°C° 0 mm 1 mps 763 mmHg 86%

Day after tomorrow, 9 August, Sunday

Time Temperature Precipitation Wind Pressure Humidity
00:00 +19°C° 0 mm 1 mps 763 mmHg 86%
01:00 +19°C° 0 mm 1 mps 762 mmHg 87%
02:00 +19°C° 0 mm 1 mps 762 mmHg 88%
03:00 +19°C° 0 mm 1 mps 762 mmHg 89%
04:00 +19°C° 0 mm 1 mps 762 mmHg 90%
05:00 +20°C° 0 mm 1 mps 762 mmHg 85%
06:00 +20°C° 0 mm 0 mps 762 mmHg 80%
07:00 +22°C° 0 mm 0 mps 762 mmHg 74%
08:00 +24°C° 0 mm 0 mps 762 mmHg 68%
09:00 +26°C° 0 mm 0 mps 762 mmHg 61%
10:00 +28°C° 0 mm 0 mps 762 mmHg 55%
11:00 +28°C° 0 mm 0 mps 762 mmHg 53%
12:00 +30°C° 0 mm 1 mps 762 mmHg 51%
13:00 +30°C° 0 mm 1 mps 762 mmHg 49%
14:00 +29°C° 0.1 mm 1 mps 762 mmHg 53%
15:00 +28°C° 0.1 mm 2 mps 761 mmHg 56%
16:00 +27°C° 0.1 mm 2 mps 761 mmHg 60%
17:00 +26°C° 0.1 mm 2 mps 761 mmHg 67%
18:00 +24°C° 0.1 mm 2 mps 761 mmHg 75%
19:00 +21°C° 0.1 mm 2 mps 761 mmHg 82%
20:00 +20°C° 0 mm 2 mps 761 mmHg 85%
21:00 +19°C° 0 mm 2 mps 761 mmHg 88%
22:00 +19°C° 0 mm 1 mps 761 mmHg 90%
23:00 +19°C° 0 mm 1 mps 761 mmHg 91%

10 August, Monday

Time Temperature Precipitation Wind Pressure Humidity
00:00 +19°C° 0 mm 1 mps 761 mmHg 92%
01:00 +18°C° 0 mm 1 mps 761 mmHg 93%
02:00 +18°C° 0 mm 1 mps 761 mmHg 94%
03:00 +18°C° 0 mm 1 mps 761 mmHg 95%
04:00 +16°C° 0 mm 1 mps 761 mmHg 96%
05:00 +19°C° 0 mm 1 mps 761 mmHg 90%
06:00 +20°C° 0 mm 1 mps 761 mmHg 84%
07:00 +22°C° 0 mm 1 mps 761 mmHg 78%
08:00 +23°C° 0 mm 2 mps 762 mmHg 69%
09:00 +25°C° 0 mm 2 mps 762 mmHg 60%
10:00 +27°C° 0 mm 2 mps 762 mmHg 51%
11:00 +27°C° 0 mm 3 mps 762 mmHg 47%
12:00 +27°C° 0 mm 3 mps 762 mmHg 44%
13:00 +28°C° 0 mm 4 mps 762 mmHg 40%
14:00 +27°C° 0 mm 4 mps 761 mmHg 42%
15:00 +26°C° 0 mm 4 mps 761 mmHg 44%
16:00 +25°C° 0 mm 4 mps 761 mmHg 46%
17:00 +22°C° 0 mm 3 mps 761 mmHg 56%
18:00 +20°C° 0 mm 3 mps 761 mmHg 66%
19:00 +18°C° 0 mm 2 mps 761 mmHg 76%
20:00 +17°C° 0 mm 2 mps 762 mmHg 79%
21:00 +16°C° 0 mm 2 mps 762 mmHg 83%
22:00 +15°C° 0 mm 2 mps 762 mmHg 86%
23:00 +15°C° 0 mm 2 mps 762 mmHg 87%

11 August, Tuesday

Time Temperature Precipitation Wind Pressure Humidity
00:00 +14°C° 0 mm 2 mps 762 mmHg 88%
01:00 +14°C° 0 mm 2 mps 762 mmHg 89%
02:00 +14°C° 0 mm 1 mps 762 mmHg 90%
03:00 +13°C° 0 mm 1 mps 762 mmHg 91%
04:00 +13°C° 0 mm 1 mps 762 mmHg 92%
05:00 +15°C° 0 mm 1 mps 762 mmHg 84%
06:00 +18°C° 0 mm 1 mps 762 mmHg 76%
07:00 +20°C° 0 mm 1 mps 763 mmHg 68%
08:00 +20°C° 0 mm 2 mps 763 mmHg 61%
09:00 +23°C° 0 mm 2 mps 763 mmHg 54%
10:00 +24°C° 0 mm 2 mps 763 mmHg 48%
11:00 +24°C° 0 mm 3 mps 763 mmHg 47%
12:00 +25°C° 0 mm 3 mps 763 mmHg 46%
13:00 +25°C° 0 mm 3 mps 763 mmHg 46%
14:00 +24°C° 0 mm 3 mps 763 mmHg 47%
15:00 +23°C° 0 mm 4 mps 763 mmHg 49%
16:00 +23°C° 0 mm 4 mps 763 mmHg 50%
17:00 +21°C° 0 mm 3 mps 763 mmHg 57%
18:00 +19°C° 0 mm 3 mps 763 mmHg 64%
19:00 +17°C° 0 mm 2 mps 763 mmHg 71%
20:00 +16°C° 0 mm 2 mps 763 mmHg 75%
21:00 +14°C° 0 mm 2 mps 763 mmHg 80%
22:00 +13°C° 0 mm 2 mps 764 mmHg 84%
23:00 +13°C° 0 mm 2 mps 764 mmHg 87%

12 August, Wednesday

Time Temperature Precipitation Wind Pressure Humidity
00:00 +13°C° 0 mm 2 mps 764 mmHg 90%
01:00 +13°C° 0 mm 2 mps 764 mmHg 94%
02:00 +13°C° 0 mm 1 mps 764 mmHg 94%
03:00 +12°C° 0 mm 1 mps 764 mmHg 94%
04:00 +12°C° 0 mm 1 mps 764 mmHg 95%
05:00 +14°C° 0 mm 1 mps 764 mmHg 86%
06:00 +16°C° 0 mm 1 mps 764 mmHg 78%
07:00 +19°C° 0 mm 1 mps 764 mmHg 69%
08:00 +20°C° 0 mm 1 mps 764 mmHg 63%
09:00 +21°C° 0 mm 1 mps 765 mmHg 56%
10:00 +23°C° 0 mm 1 mps 765 mmHg 50%
11:00 +23°C° 0 mm 1 mps 765 mmHg 51%
12:00 +22°C° 0 mm 1 mps 765 mmHg 51%
13:00 +22°C° 0 mm 1 mps 764 mmHg 52%
14:00 +21°C° 0 mm 2 mps 764 mmHg 52%
15:00 +21°C° 0 mm 2 mps 764 mmHg 53%
16:00 +21°C° 0 mm 2 mps 764 mmHg 53%
17:00 +19°C° 0 mm 2 mps 764 mmHg 60%
18:00 +18°C° 0 mm 2 mps 764 mmHg 67%
19:00 +16°C° 0 mm 1 mps 764 mmHg 74%
20:00 +15°C° 0 mm 1 mps 764 mmHg 76%
21:00 +14°C° 0 mm 1 mps 764 mmHg 78%
22:00 +13°C° 0 mm 1 mps 764 mmHg 81%
23:00 +13°C° 0 mm 1 mps 763 mmHg 81%
Show more